Regional Weather Roundup
Issued by NWS Charleston, SC

Current Version | Previous Version | Graphics & Text | Print | Product List | Glossary On
Versions: 1 2 3 4 5 6 7 8 9 10 11 12 13 14 15 16 17 18 19 20 21 22 23 24 25 26 27 28 29 30 31 32 33 34 35 36 37 38 39 40 41 42 43 44 45 46 47 48 49 50
000 ASUS42 KCHS 240812 RWRCHS Regional Weather Roundup National Weather Service Charleston SC 300 AM EST SAT FEB 24 2018 NOTE: "fair" indicates few or no clouds below 12,000 feet with no significant weather and/or obstructions to visibility. Not all stations are quality controlled. Use data with caution, especially dewpoint observations. SCZ027-030-031-034>040-042>050-240900- ...Southeast South Carolina... CITY SKY/WX TMP DP RH WIND PRES REMARKS N Charleston FAIR 62 62 100 S5 30.26F Waterfront Prk N/A 65 64 97 CALM 30.14F Mount Pleasant FAIR 63 63 100 CALM 30.27F Johns Island FOG 64 64 100 CALM 30.28F VSB 3/4 Pinopolis N/A 63 63 100 VRB3 30.19F Moncks Corner HVY RAIN 57 57 100 CALM 30.27F VSB 1/4 Summerville FAIR 61 61 100 CALM 30.27F Beaufort MCAS FAIR 66 65 96 SE6 30.26F Beaufort Arpt FAIR 61 61 100 SE3 30.26F FOG Hilton Head Is FAIR 59 59 100 CALM 30.28F Walterboro FOG 57 57 100 CALM 30.27F VSB 1/4 Allendale CLOUDY 61 61 100 CALM 30.25F FOG ...Southern Midlands and Pee Dee... CITY SKY/WX TMP DP RH WIND PRES REMARKS Georgetown PTSUNNY 59 59 100 CALM 30.29F FOG Kingstree CLOUDY 61 61 100 CALM 30.27F FOG Orangeburg CLOUDY 63 62 97 SW6 30.27S Barnwell FOG 59 59 100 CALM 30.27S VSB 1/4 Aiken FAIR 57 57 100 S5 30.29F Manning CLOUDY 63 59 88 MISG 30.27S FOG Columbia FAIR 63 63 100 S6 30.25F Sumter FOG 59 59 100 CALM 30.24F VSB 3/8 Florence CLOUDY 63 62 97 S9 30.26F FOG Myrtle Beach FAIR 64 63 96 SW6 30.29F N Myrtle Beach MOCLDY 64 63 96 SW7 30.28F $$ GAZ063-065-086>088-099>101-113>116-118-119-134>141-150-240900- ...Southeast Georgia... CITY SKY/WX TMP DP RH WIND PRES REMARKS Savannah Arpt FAIR 62 62 100 CALM 30.27F Hunter AAF FAIR 64 62 93 CALM 30.24F Fort Stewart FAIR 58 58 100 CALM 30.24F Statesboro FAIR 62 32 32 CALM 30.26F Sylvania FAIR 62 62 100 CALM 30.27F Claxton FOG 59 59 99 CALM 30.26F VSB 1/4 ...CSRA, Central and far Southeast Georgia... CITY SKY/WX TMP DP RH WIND PRES REMARKS Thomson FAIR 61 60 96 SW5 30.30F Augusta-Bush CLOUDY 56 56 100 CALM 30.25F FOG Augusta-Daniel FAIR 63 61 93 SE5 30.26F Swainsboro FAIR 63 63 100 S3 30.26F Vidalia FAIR 63 63 100 CALM 30.26F Eastman N/A 61 55 79 CALM 30.27F HAZE Hazlehurst FAIR 64 64 100 S5 30.24F Alma FAIR 65 63 93 SE5 30.24F Waycross FAIR 64 61 90 S6 30.25F Jesup NOT AVBL Baxley FAIR 61 61 100 S3 30.24F Brunswick FOG 57 55 94 CALM 30.27F VSB 1/2 Saint Simons FAIR 66 66 100 S5 30.26F $$ SCZ027-028-034-036>038-045-046-048>050-GAZ119-141-240900- ...Lake and Supplemental Coastal Observations... STATION/POSITION TIME TEMP WIND PRES WAVE SWELL AIR SEA DIR/SP/G HT/PER HT/PER/DIR (UTC) (F) (DEG/KT/KT) (MB) (FT/S) (FT/S/D) Winyah Bay 0645 65 190/ 2 1026.0 Lake Murray 0720 63 210/ 4/ 5 1024.0 ACE Basin NERRS 0645 61 CALM 1026.0 Fort Pulaski 0736 63 62 120/ 1/ 1 1025.3F Sapelo Island 0700 65 160/ 3 1025.0 $$ ANZ835-935-AMZ111-154-330-350-352-354-370-450-454-472-240900- ...C-MAN and Buoy Observations... STATION/POSITION TIME TEMP WIND PRES WAVE SWELL AIR SEA DIR/SP/G HT/PER HT/PER/DIR (UTC) (F) (DEG/KT/KT) (MB) (FT/S) (FT/S/D) Buoy 41004 0750 70 68 170/ 4/ 6 1025.1F 5/10 5/130/10 Buoy 41008 0750 63 60 160/ 6/ 6 1024.5F 4/10 3/120/10 Folly Beach CMAN 0800 64 210/ 5/ 5 1025.6F Capers Nearshore 0708 59 63 170/ 4/ 8 1025.4F Fripp Nearshore 0708 60 62 140/ 2/ 6 1024.2F STATION/POSITION TIME TEMP WIND PRES WAVE SWELL AIR SEA DIR/SP/G HT/PER HT/PER/DIR (UTC) (F) (DEG/KT/KT) (MB) (FT/S) (FT/S/D) 5E St. Marys GA 0730 65 N/A 3/ 8 2/100/11 Frying Pan Buoy 0750 72 70 190/ 14/ 16 1025.3F 4/10 3/160/10 Buoy 41025 0750 72 73 230/ 14/ 19 1025.3F 5/ 9 3/100/ 9 Cape Lookout NC 0700 210/ 5/ 6 1026.1F Buoy 41002 0750 71 73 180/ 10/ 12 1027.0F 5/ 9 5/110/ 9 Buoy 41010 NOT AVBL St Augustine FL 0800 68 67 180/ 3/ 3 1024.6F $$

USA.gov is the U.S. government's official web portal to all federal, state and local government web resources and services.